Location: Vancouver
(49.2500°N, 123.1330°W)
Time: 11:56:33
(UTC-08:00)

deb Explorer IX - Visible Passes

Search period start: 19 February 2018 00:00
Search period end: 01 March 2018 00:00
Orbit: 548 x 1113 km, 38.8° (Epoch: 18 February)

Date Brightness Start Highest point End Pass type
(mag) Time Alt. Az. Time Alt. Az. Time Alt. Az.
19 Feb ? 19:37:17 10° SW 19:43:16 28° SSE 19:45:02 26° SE visible
19 Feb ? 21:23:21 10° WSW 21:26:32 24° SW 21:26:32 24° SW visible
20 Feb ? 19:16:46 10° SW 19:22:44 29° SSE 19:25:52 21° SE visible
20 Feb ? 21:02:50 10° WSW 21:07:21 31° SSW 21:07:21 31° SSW visible
21 Feb ? 18:56:17 10° SW 19:02:11 29° SSE 19:06:39 16° ESE visible
21 Feb ? 20:42:20 10° WSW 20:48:08 36° SSW 20:48:08 36° SSW visible
21 Feb ? 22:29:29 10° WSW 22:29:37 10° WSW 22:29:37 10° WSW visible
22 Feb ? 18:35:49 10° SW 18:41:40 29° SSE 18:47:25 11° ESE visible
22 Feb ? 20:21:51 10° WSW 20:28:20 36° S 20:28:54 36° S visible
22 Feb ? 22:08:59 10° WSW 22:10:23 15° WSW 22:10:23 15° WSW visible
23 Feb ? 18:15:23 10° SW 18:21:09 29° SSE 18:27:15 10° ESE visible
23 Feb ? 20:01:24 10° WSW 20:07:49 36° S 20:09:39 32° SSE visible
23 Feb ? 21:48:30 10° WSW 21:51:08 20° WSW 21:51:08 20° WSW visible
24 Feb ? 19:40:58 10° WSW 19:47:17 36° S 19:50:23 26° SE visible
24 Feb ? 21:28:02 10° WSW 21:31:52 24° SW 21:31:52 24° SW visible
25 Feb ? 19:20:33 10° WSW 19:26:46 36° S 19:31:08 19° SE visible
25 Feb ? 21:07:36 10° WSW 21:12:37 26° SSW 21:12:37 26° SSW visible
26 Feb ? 19:00:10 10° WSW 19:06:15 35° S 19:11:55 13° ESE visible
26 Feb ? 20:47:11 10° WSW 20:52:53 26° SSW 20:53:24 26° SSW visible
27 Feb ? 18:39:47 10° WSW 18:45:45 35° S 18:52:12 10° ESE visible
27 Feb ? 20:26:48 10° WSW 20:32:22 25° SSW 20:34:13 23° S visible
28 Feb ? 18:19:26 10° WSW 18:25:15 34° S 18:31:37 10° ESE visible
28 Feb ? 20:06:26 10° WSW 20:11:51 25° SSW 20:15:05 18° SSE visible
